• In Czech Republic
  • List of Countries
  • For 7 days
  • Water Temperature
  • Satellite Maps
  • Weather Map
  • Weather Widgets
  • user-avatar
    Login

    Hourly Weather Glasgow

    Today, 19 September, Wednesday

    Time Temperature Precipitation Wind Pressure Humidity
    00:00 +11°C° 0 mm 8 mps 746 mmHg 89%
    01:00 +10°C° 0 mm 8 mps 746 mmHg 86%
    02:00 +10°C° 0 mm 9 mps 746 mmHg 84%
    03:00 +10°C° 0 mm 9 mps 747 mmHg 81%
    04:00 +10°C° 0 mm 9 mps 747 mmHg 80%
    05:00 +10°C° 0 mm 9 mps 747 mmHg 79%
    06:00 +9°C° 0 mm 7 mps 747 mmHg 78%
    07:00 +10°C° 0.1 mm 8 mps 745 mmHg 80%
    08:00 +9°C° 0.1 mm 10 mps 744 mmHg 83%
    09:00 +11°C° 0.1 mm 11 mps 743 mmHg 85%
    10:00 +10°C° 1.1 mm 13 mps 741 mmHg 85%
    11:00 +12°C° 1.1 mm 14 mps 739 mmHg 84%
    12:00 +13°C° 1.1 mm 16 mps 737 mmHg 84%
    13:00 +11°C° 0.1 mm 16 mps 738 mmHg 78%
    14:00 +11°C° 0.1 mm 17 mps 738 mmHg 72%
    15:00 +11°C° 0.1 mm 18 mps 739 mmHg 67%
    16:00 +10°C° 0 mm 16 mps 740 mmHg 68%
    17:00 +9°C° 0 mm 15 mps 742 mmHg 69%
    18:00 +8°C° 0 mm 13 mps 744 mmHg 70%
    19:00 +8°C° 0 mm 13 mps 745 mmHg 69%
    20:00 +8°C° 0 mm 13 mps 745 mmHg 67%
    21:00 +7°C° 0 mm 13 mps 746 mmHg 65%
    22:00 +7°C° 0 mm 13 mps 746 mmHg 66%
    23:00 +7°C° 0 mm 13 mps 747 mmHg 67%

    Tomorrow, 20 September, Thursday

    Time Temperature Precipitation Wind Pressure Humidity
    00:00 +7°C° 0 mm 13 mps 747 mmHg 67%
    01:00 +7°C° 0 mm 13 mps 747 mmHg 68%
    02:00 +7°C° 0 mm 12 mps 747 mmHg 69%
    03:00 +7°C° 0 mm 12 mps 748 mmHg 69%
    04:00 +7°C° 0 mm 12 mps 748 mmHg 70%
    05:00 +7°C° 0 mm 12 mps 748 mmHg 70%
    06:00 +7°C° 0 mm 12 mps 748 mmHg 70%
    07:00 +8°C° 0 mm 12 mps 749 mmHg 67%
    08:00 +9°C° 0 mm 11 mps 749 mmHg 64%
    09:00 +9°C° 0 mm 11 mps 749 mmHg 62%
    10:00 +11°C° 0 mm 10 mps 749 mmHg 59%
    11:00 +12°C° 0 mm 10 mps 750 mmHg 57%
    12:00 +13°C° 0 mm 9 mps 750 mmHg 54%
    13:00 +13°C° 0 mm 8 mps 750 mmHg 56%
    14:00 +12°C° 0 mm 7 mps 750 mmHg 59%
    15:00 +13°C° 0 mm 6 mps 750 mmHg 61%
    16:00 +12°C° 0 mm 5 mps 749 mmHg 66%
    17:00 +11°C° 0 mm 4 mps 748 mmHg 71%
    18:00 +10°C° 0 mm 3 mps 747 mmHg 77%
    19:00 +10°C° 0 mm 3 mps 746 mmHg 79%
    20:00 +9°C° 0 mm 3 mps 746 mmHg 82%
    21:00 +9°C° 0 mm 3 mps 745 mmHg 84%
    22:00 +9°C° 0.5 mm 3 mps 743 mmHg 87%
    23:00 +7°C° 0.5 mm 4 mps 742 mmHg 90%

    Day after tomorrow, 21 September, Friday

    Time Temperature Precipitation Wind Pressure Humidity
    00:00 +7°C° 0.5 mm 4 mps 741 mmHg 94%
    01:00 +7°C° 2.1 mm 6 mps 739 mmHg 94%
    02:00 +6°C° 2.1 mm 8 mps 738 mmHg 95%
    03:00 +6°C° 2.1 mm 9 mps 737 mmHg 95%
    04:00 +6°C° 3 mm 10 mps 737 mmHg 94%
    05:00 +4°C° 3 mm 11 mps 737 mmHg 93%
    06:00 +4°C° 3 mm 11 mps 737 mmHg 93%
    07:00 +6°C° 1.5 mm 11 mps 738 mmHg 91%
    08:00 +6°C° 1.5 mm 11 mps 739 mmHg 89%
    09:00 +7°C° 1.5 mm 11 mps 740 mmHg 87%
    10:00 +7°C° 0.2 mm 10 mps 742 mmHg 84%
    11:00 +8°C° 0.2 mm 10 mps 743 mmHg 80%
    12:00 +8°C° 0.2 mm 10 mps 745 mmHg 77%
    13:00 +10°C° 0.1 mm 9 mps 746 mmHg 72%
    14:00 +10°C° 0.1 mm 9 mps 746 mmHg 67%
    15:00 +11°C° 0.1 mm 9 mps 747 mmHg 62%
    16:00 +10°C° 0 mm 8 mps 748 mmHg 67%
    17:00 +9°C° 0 mm 7 mps 748 mmHg 72%
    18:00 +8°C° 0 mm 7 mps 749 mmHg 77%
    19:00 +6°C° 0.1 mm 7 mps 750 mmHg 79%
    20:00 +6°C° 0.1 mm 8 mps 750 mmHg 80%
    21:00 +5°C° 0.1 mm 8 mps 751 mmHg 82%
    22:00 +5°C° 0 mm 8 mps 751 mmHg 82%
    23:00 +5°C° 0 mm 8 mps 752 mmHg 82%

    22 September, Saturday

    Time Temperature Precipitation Wind Pressure Humidity
    00:00 +5°C° 0 mm 8 mps 752 mmHg 82%
    01:00 +5°C° 0 mm 9 mps 752 mmHg 79%
    02:00 +5°C° 0 mm 10 mps 752 mmHg 76%
    03:00 +4°C° 0 mm 11 mps 753 mmHg 73%
    04:00 +4°C° 0.1 mm 11 mps 753 mmHg 74%
    05:00 +4°C° 0.1 mm 11 mps 754 mmHg 74%
    06:00 +5°C° 0.1 mm 10 mps 755 mmHg 75%
    07:00 +6°C° 0 mm 10 mps 755 mmHg 72%
    08:00 +7°C° 0 mm 10 mps 756 mmHg 69%
    09:00 +8°C° 0 mm 9 mps 757 mmHg 66%
    10:00 +8°C° 0 mm 9 mps 757 mmHg 63%
    11:00 +10°C° 0 mm 8 mps 758 mmHg 59%
    12:00 +11°C° 0 mm 7 mps 758 mmHg 56%
    13:00 +11°C° 0.1 mm 7 mps 759 mmHg 57%
    14:00 +11°C° 0.1 mm 6 mps 759 mmHg 57%
    15:00 +12°C° 0.1 mm 5 mps 759 mmHg 57%
    16:00 +10°C° 0.1 mm 4 mps 759 mmHg 63%
    17:00 +8°C° 0.1 mm 4 mps 759 mmHg 69%
    18:00 +8°C° 0.1 mm 3 mps 759 mmHg 75%
    19:00 +7°C° 0 mm 3 mps 759 mmHg 77%
    20:00 +7°C° 0 mm 2 mps 759 mmHg 79%
    21:00 +6°C° 0 mm 2 mps 760 mmHg 81%
    22:00 +6°C° 0 mm 2 mps 759 mmHg 82%
    23:00 +5°C° 0 mm 2 mps 759 mmHg 84%

    23 September, Sunday

    Time Temperature Precipitation Wind Pressure Humidity
    00:00 +5°C° 0 mm 2 mps 759 mmHg 86%
    01:00 +4°C° 0 mm 3 mps 759 mmHg 87%
    02:00 +4°C° 0 mm 3 mps 758 mmHg 88%
    03:00 +4°C° 0 mm 4 mps 758 mmHg 89%
    04:00 +3°C° 0 mm 5 mps 757 mmHg 88%
    05:00 +3°C° 0 mm 5 mps 757 mmHg 87%
    06:00 +4°C° 0 mm 6 mps 757 mmHg 86%
    07:00 +5°C° 0 mm 7 mps 757 mmHg 82%
    08:00 +5°C° 0 mm 8 mps 757 mmHg 77%
    09:00 +6°C° 0 mm 8 mps 757 mmHg 72%
    10:00 +7°C° 0 mm 9 mps 757 mmHg 70%
    11:00 +7°C° 0 mm 9 mps 757 mmHg 68%
    12:00 +7°C° 0 mm 9 mps 757 mmHg 66%
    13:00 +7°C° 0.1 mm 10 mps 757 mmHg 66%
    14:00 +7°C° 0.1 mm 10 mps 758 mmHg 66%
    15:00 +7°C° 0.1 mm 10 mps 758 mmHg 66%
    16:00 +7°C° 0.1 mm 10 mps 759 mmHg 69%
    17:00 +6°C° 0.1 mm 10 mps 759 mmHg 73%
    18:00 +5°C° 0.1 mm 10 mps 760 mmHg 76%
    19:00 +4°C° 0 mm 11 mps 761 mmHg 76%
    20:00 +3°C° 0 mm 11 mps 761 mmHg 76%
    21:00 +3°C° 0 mm 11 mps 762 mmHg 77%
    22:00 +3°C° 0 mm 11 mps 763 mmHg 76%
    23:00 +3°C° 0 mm 11 mps 763 mmHg 75%

    24 September, Monday

    Time Temperature Precipitation Wind Pressure Humidity
    00:00 +3°C° 0 mm 11 mps 764 mmHg 74%
    01:00 +3°C° 0 mm 11 mps 764 mmHg 74%
    02:00 +3°C° 0 mm 10 mps 765 mmHg 74%
    03:00 +3°C° 0 mm 10 mps 765 mmHg 74%
    04:00 +3°C° 0 mm 10 mps 765 mmHg 76%
    05:00 +3°C° 0 mm 9 mps 766 mmHg 77%
    06:00 +4°C° 0 mm 8 mps 766 mmHg 78%
    07:00 +5°C° 0 mm 8 mps 766 mmHg 75%
    08:00 +6°C° 0 mm 8 mps 767 mmHg 72%
    09:00 +7°C° 0 mm 8 mps 767 mmHg 68%
    10:00 +9°C° 0 mm 8 mps 768 mmHg 65%
    11:00 +10°C° 0 mm 8 mps 768 mmHg 63%
    12:00 +10°C° 0 mm 8 mps 768 mmHg 60%
    13:00 +10°C° 0 mm 8 mps 768 mmHg 60%
    14:00 +10°C° 0 mm 8 mps 769 mmHg 60%
    15:00 +10°C° 0 mm 8 mps 769 mmHg 60%
    16:00 +9°C° 0 mm 7 mps 769 mmHg 66%
    17:00 +8°C° 0 mm 6 mps 769 mmHg 72%
    18:00 +7°C° 0 mm 5 mps 770 mmHg 78%
    19:00 +7°C° 0 mm 5 mps 770 mmHg 81%
    20:00 +6°C° 0 mm 5 mps 770 mmHg 84%
    21:00 +5°C° 0 mm 5 mps 771 mmHg 88%
    22:00 +5°C° 0 mm 5 mps 770 mmHg 89%
    23:00 +5°C° 0 mm 5 mps 770 mmHg 90%
    Show more